Location: Arroyo de Valdeoliva
(40.1604°N, 4.9878°W)
Time: 21:04:40
(UTC+00:00)

USA 238 - Pass Details

Date: 11 December 2025
Orbit: 883 x 1328 km, 63.4° (Epoch: 10 January)

Event Time Altitude Azimuth Distance (km) Brightness Sun altitude
Rises 18:28:18 0° 217° (SW) 3,493 7.3 -17.3°
Reaches altitude 10° 18:30:43 10° 219° (SW) 2,581 6.5 -17.8°
Maximum altitude 18:36:42 76° 305° (NW) 985 3.6 -18.9°
Enters shadow 18:41:25 20° 30° (NNE) 2,156 4.9 -19.8°
